Regional Weather Roundup
Issued by NWS Green Bay, WI

Home | Current Version | Previous Version | Graphics & Text | Print | Product List | Glossary Off
Versions: 1 2 3 4 5 6 7 8 9 10 11 12 13 14 15 16 17 18 19 20 21 22 23 24 25 26 27 28 29 30 31 32 33 34 35 36 37 38 39 40 41 42 43 44 45 46 47 48 49 50

000
ASUS43 KGRB 170810
RWRGRB

NORTH-CENTRAL AND NORTHEAST WISCONSIN REGIONAL WEATHER ROUNDUP
NATIONAL WEATHER SERVICE GREEN BAY WI
300 AM CDT WED SEP 17 2014

WIZ005-009-010>012-018-019-170900-
NORTH CENTRAL WISCONSIN

CITY           SKY/WX    TMP DP  RH WIND       PRES   REMARKS
IRONWOOD       MOCLDY    52  43  71 SW9       29.93S
MANITOWISH WTR PTCLDY    41  41 100 SW3       29.97F
ARBOR VITAE    PTCLDY    42  39  92 CALM      29.98F
EAGLE RIVER    PTCLDY    41  41 100 CALM      29.97F
LAND O LAKES   CLOUDY    49  43  79 CALM      29.97F
RHINELANDER    CLEAR     42  40  92 CALM      30.00F
PHILLIPS       CLEAR     39  38  96 CALM      29.99F
ANTIGO         CLEAR     39  38  99 CALM      30.02S
TOMAHAWK       CLEAR     35  34  96 CALM      30.01S
MERRILL        MOCLDY    36  35  98 CALM      30.01F
$$

WIZ013-073-170900-
NORTHEAST WISCONSIN

CITY           SKY/WX    TMP DP  RH WIND       PRES   REMARKS
IRON MOUNTAIN  CLOUDY    50  43  77 CALM      29.96F
MARINETTE      CLEAR     48  43  81 W5        29.99S
OCONTO         CLEAR     44  44 100 W3        30.01S
$$

WIZ017-030-035>037-045-170900-
CENTRAL WISCONSIN

CITY           SKY/WX    TMP DP  RH WIND       PRES   REMARKS
MEDFORD        FOG       38  38  99 S5        30.01F VSB 1
WAUSAU         CLEAR     43  42  97 E3        30.01F
MOSINEE        CLEAR     41  41 100 CALM      30.03F
MARSHFIELD     CLEAR     43  41  93 CALM      30.02F
WISC RAPIDS    CLEAR     40  39  97 CALM      30.04F FOG
STEVENS POINT  CLEAR     37  36  95 CALM      30.03F
WAUPACA        CLEAR     42  41  95 CALM      30.03F
SHAWANO        CLEAR     46  43  92 CALM      30.03S
CLINTONVILLE   CLEAR     41  39  93 CALM      30.02F
$$

WIZ038-039-048-051-170900-
FOX VALLEY

CITY           SKY/WX    TMP DP  RH WIND       PRES   REMARKS
NWS GREEN BAY  CLEAR     44  42  93 SW3       30.02F
APPLETON       NOT AVBL
OSHKOSH        CLEAR     48  43  82 SW5       30.03F
FOND DU LAC    CLEAR     43  40  89 S5        30.04F
$$

WIZ022-050-052-170900-
EAST CENTRAL WISCONSIN

CITY           SKY/WX    TMP DP  RH WIND       PRES   REMARKS
STURGEON BAY   CLEAR     50  45  81 W5        30.01F
MANITOWOC      CLEAR     49  45  86 W3        30.03F
SHEBOYGAN      CLEAR     43  41  93 CALM      30.04F
$$

LMZ563-521-522-541>543-170900-
LAKESHORE

STATION/POSITION TIME  TEMP    WIND        PRES    VSBY  WAVE
                       AIR SEA DIR/SP/G                  HT/PER
                 (UTC) (F)     (DEG/KT/KT) (MB)    (MI)  (FT/S)
SHEBOYGAN LKSHOR 0800   50 51  250/  9/  9 1017.6F
KEWAUNEE LKSHORE 0800   49     300/  6/  7 1015.5F
NORTHPORT PIER   0800   55     280/  4/  9 1015.2F
N MID LAKE BUOY  0800   57 58  270/ 10/ 14 1015.2F         2/ 5
S GREEN BAY BUOY 0700   56     VRB 12/ 14  1017.2
CHAMBERS ISLAND  0800   54     210/  5/  8 1015.6F
MENOMINEE LKSHOR 0800   52     250/  7/ 10 1016.2S
$$



USA.gov is the U.S. government's official web portal to all federal, state and local government web resources and services.